Location: Eppstein
(49.5070°N, 8.3322°E)
Time: 08:56:10
(UTC+00:00)

Daily predictions for brighter satellites

Satellite Brightness Start Highest point End
(mag) Time Altitude Azimuth Time Altitude Azimuth Time Altitude Azimuth
Cosmos 836 Rocket 4.5 20:08:40 10° SSW 20:13:49 73° ESE 20:19:03 10° NNE
Sich 1 3.5 20:12:25 10° N 20:16:31 45° ENE 20:20:38 10° SSE
BREEZE-M R/B 4.4 20:10:07 10° WNW 20:18:43 69° SSW 20:24:20 10° SE
Terra 3.3 20:22:13 10° SSW 20:26:29 34° W 20:30:47 10° NNW
Cosmos 44 Rocket 4.1 20:23:41 10° NW 20:28:40 49° WSW 20:33:31 10° SSE
CENTAUR R/B 2.9 20:23:13 10° SW 20:28:52 72° NW 20:36:08 10° NE
Cosmos 1758 3.5 20:27:33 10° N 20:31:11 50° ENE 20:34:46 10° SSE
Meteor 1-27 Rocket 4.4 20:28:32 10° SSW 20:34:01 58° WNW 20:39:31 10° N
Cosmos 2208 Rocket 4.0 20:30:31 10° SSW 20:35:42 78° ESE 20:40:53 10° NNE
BREEZE-M DEB (TANK) 1.4 20:34:53 10° W 20:37:27 84° S 20:39:28 10° E
SPOT 3 Rocket 3.6 20:34:23 10° SSE 20:39:29 82° ENE 20:44:40 10° NNW
SL-12 R/B (Aux Motor) 4.4 20:39:00 10° WSW 20:41:21 49° S 20:45:41 10° E
FAST 4.5 20:39:50 10° N 20:42:28 83° W 20:45:26 10° S
YAOGAN 11 4.2 20:38:10 10° NNE 20:42:39 85° WNW 20:47:04 10° SSW
Cosmos 2227 4.2 20:39:56 10° SSW 20:45:40 85° ESE 20:51:29 10° NNE
Okean 3 Rocket 3.6 20:42:19 10° N 20:46:48 80° E 20:51:06 11° SSE
Cosmos 724 4.4 20:41:41 10° NW 20:47:31 77° NE 20:52:53 12° SE
CZ-4 R/B 4.3 20:47:15 10° W 20:48:02 11° W 20:48:49 10° WNW
Helios 1A Rocket 4.5 20:45:56 10° N 20:48:38 27° WNW 20:51:19 10° SW
Ariane Rocket 3.0 20:44:08 10° SSE 20:49:08 77° ENE 20:54:14 10° NNW
IRS-1C Rocket 4.1 20:44:30 10° SSE 20:49:41 77° ENE 20:54:57 10° NNW
Okean-O 3.7 20:46:13 10° S 20:50:21 41° W 20:54:31 10° NNW
Cosmos 1805 Rocket 3.7 20:48:48 10° N 20:53:04 59° ENE 20:56:46 14° SSE
NOSS 3-2 (A) 3.1 20:51:29 10° SSW 20:56:28 77° SE 21:02:31 10° NE
Cosmos 1340 Rocket 2.6 20:52:41 10° NNW 20:56:29 85° W 20:59:47 13° S
Cosmos 1408 Rocket 3.7 20:52:51 10° N 20:57:15 66° ENE 21:01:00 14° SSE
USA 215 3.4 20:51:04 10° ESE 20:57:35 77° NNE 21:04:07 10° WNW
Cosmos 1842 Rocket 4.1 20:53:46 10° SSW 20:58:09 62° WNW 21:02:35 10° N
Cosmos 1603 3.9 20:52:49 10° NNW 20:58:33 68° WSW 21:03:42 12° SSE
BREEZE-M DEB (TANK) 3.4 21:00:47 10° SW 21:01:26 11° SW 21:01:54 10° SSW
Cosmos 1743 Rocket 4.0 21:00:25 10° N 21:04:36 46° ENE 21:07:49 16° SE
Cosmos 1703 3.7 21:04:34 18° SE 21:06:19 30° E 21:09:09 10° NNE
USA 245 3.7 21:03:10 10° S 21:06:49 48° WSW 21:09:53 10° NNW
Cosmos 1844 Rocket 3.0 21:02:36 10° SW 21:08:08 69° WNW 21:13:44 10° NNE
SL-14 R/B 3.8 21:07:20 10° SSW 21:11:00 56° WNW 21:14:41 10° N
Cosmos 1553 Rocket 4.1 21:07:32 10° S 21:13:54 73° E 21:20:12 10° NNE
CZ-4C R/B 4.0 21:08:29 10° NW 21:14:59 37° WSW 21:22:43 10° S
Cosmos 1833 Rocket 3.2 21:12:47 10° NNW 21:18:20 52° NE 21:22:56 15° SE
Cosmos 1151 Rocket 3.0 21:14:26 11° S 21:18:41 87° E 21:23:02 10° N
Cosmos 2082 Rocket 4.3 21:19:10 10° N 21:23:06 19° NE 21:27:02 10° E
CZ-2C R/B 1.8 21:23:48 24° S 21:25:17 76° WSW 21:28:02 10° NNW
Cosmos 1953 2.6 21:24:09 10° N 21:27:37 45° ENE 21:29:35 22° SE
SL-24 R/B - RUBIN 2 4.4 21:24:30 10° WSW 21:28:54 52° NW 21:33:10 10° NNE
CZ-4B R/B 4.1 21:24:45 13° S 21:29:12 53° W 21:34:18 10° NNW
Cosmos 2278 Rocket 4.0 21:28:07 11° ESE 21:30:02 13° E 21:32:37 10° ENE
Okean O Rocket 3.9 21:27:04 10° SW 21:30:03 18° W 21:33:03 10° NW
Cosmos 1633 Rocket 3.8 21:31:21 10° N 21:35:29 40° ENE 21:38:07 20° SE
NOSS 3-2 (C) 3.1 21:32:56 10° SSW 21:37:51 61° SE 21:43:46 10° NE
Cosmos 1461 4.1 21:40:41 10° WNW 21:43:28 23° WSW 21:45:06 16° SSW
NOSS 2-3 (C) 3.6 21:42:37 26° SSE 21:43:49 35° ESE 21:47:05 10° NE
Cosmos 1745 Rocket 4.0 21:40:11 10° N 21:46:28 82° E 21:51:04 20° SSE
Helios 1A 3.0 21:51:37 10° NNE 21:55:30 55° ESE 21:57:27 27° SSE
Cosmos 2344 3.7 21:48:48 10° SSW 21:56:18 48° ESE 22:03:07 10° NE
GP-B 3.9 21:53:40 10° N 21:57:53 48° W 22:01:23 14° SSW
Helios 1B rocket 2.7 21:57:42 25° SE 21:59:16 42° ENE 22:02:33 10° N
Iridium 4 Rocket 3.8 21:55:05 15° SSW 21:59:33 67° W 22:04:36 10° N
BREEZE-M R/B 4.5 21:57:28 13° SSW 22:01:35 41° SE 22:10:20 10° ENE
ARIANE 5 R/B 3.6 21:59:12 19° SE 22:01:52 38° ENE 22:06:00 10° N
SWARM A 4.5 22:01:03 10° N 22:04:15 59° W 22:05:43 28° SSW
Cosmos 1470 Rocket 3.9 22:02:59 10° N 22:07:23 56° ENE 22:09:41 26° SE
Okean 2 4.1 22:07:04 27° SE 22:08:24 36° E 22:11:56 10° NNE
Cosmos 1241 Rocket 4.4 22:02:55 10° SSW 22:09:03 73° ESE 22:15:18 10° NE
Cosmos 1420 Rocket 4.0 22:04:49 10° NNW 22:10:04 81° ENE 22:13:10 25° SSE
NOSS 2-3 (D) 3.1 22:07:22 10° SW 22:11:03 83° NW 22:14:56 10° NE
ALOS 2 3.4 22:11:55 22° SE 22:14:21 42° ENE 22:18:31 10° N
Cosmos 1538 Rocket 4.1 22:11:35 13° SSW 22:16:11 78° WNW 22:21:26 10° NNE
Cosmos 2315 Rocket 4.0 22:13:38 21° S 22:17:58 81° E 22:24:13 10° N
Cosmos 1943 Rocket 2.8 22:16:33 25° SSE 22:19:15 40° ESE 22:24:30 10° NE
Meteor 1-21 4.2 22:18:13 24° S 22:21:44 74° E 22:27:22 10° NNE
Cosmos 923 Rocket 4.1 22:21:15 25° S 22:24:10 59° ESE 22:29:20 10° NNE
Cosmos 1328 Rocket 3.7 22:24:39 23° SSW 22:27:17 69° W 22:31:38 10° N
CZ-2C R/B 3.9 22:22:48 10° NNE 22:27:28 61° E 22:29:46 29° S
Lacrosse 5 rocket 1.0 22:30:44 39° S 22:31:36 50° SE 22:35:01 10° ENE
Cosmos 1666 Rocket 4.3 22:31:09 10° NNW 22:35:17 43° W 22:37:29 24° SSW
CZ-2C R/B 3.8 22:31:43 15° ESE 22:35:22 33° ENE 22:40:00 10° N
USA 81 4.2 22:32:49 10° N 22:38:05 65° E 22:40:53 27° SSE
NOSS 2-3 (E) 4.1 22:35:12 10° WSW 22:38:44 47° NW 22:42:32 10° NE
Cosmos 1371 Rocket 4.0 22:35:24 10° NNW 22:40:42 76° ENE 22:43:38 26° SSE
USA 215 3.7 22:37:29 25° S 22:40:56 43° SW 22:47:05 10° WNW
PSLV R/B 4.1 22:38:13 10° NNE 22:42:46 52° E 22:44:44 31° SSE
Cosmos 1869 Rocket 4.2 22:42:36 10° N 22:46:45 46° ENE 22:48:44 27° SE
GEOS 3 Rocket 3.8 22:45:16 27° SSE 22:48:09 63° SW 22:53:31 10° NW
MetOp-A 4.1 22:53:36 26° SE 22:55:25 44° ENE 22:59:06 10° N
NOSS 2-1 (D) 3.7 22:55:58 34° SE 22:55:58 34° SE 22:58:49 10° ENE
Cosmos 1515 Rocket 3.5 22:55:38 32° SSW 22:57:38 81° WNW 23:01:59 10° N
Cosmos 2154 Rocket 4.2 22:51:55 10° N 22:58:06 66° ENE 23:01:51 25° SSE
NOSS 2-1 (C) 3.9 22:59:06 30° ESE 22:59:06 30° ESE 23:01:47 10° ENE
ARGOS Delta rocket 4.4 22:53:36 10° N 22:58:56 63° WNW 23:02:18 22° SSW
Cosmos 2184 Rocket 4.1 22:52:53 10° N 22:59:09 73° E 23:02:54 26° SSE
USA 59 Rocket -0.4 23:01:29 44° SE 23:01:42 45° SE 23:04:39 10° NE
Spot 4 4.1 22:59:30 30° S 23:01:45 61° WSW 23:06:33 10° NNW
Cosmos 1833 Rocket 3.8 22:57:07 10° NW 23:01:58 30° WSW 23:04:36 21° SSW
Cosmos 1953 4.5 23:00:11 10° NW 23:02:07 14° W 23:03:47 11° WSW
SAR-Lupe-2 3.3 23:05:52 48° SE 23:06:37 73° ENE 23:09:51 10° N
Cosmos 1733 Rocket 4.3 23:02:57 10° N 23:06:48 31° ENE 23:09:08 19° ESE
Cosmos 2082 Rocket 2.3 23:02:33 10° NNW 23:08:12 73° ENE 23:11:51 22° SE
Okean 3 3.2 23:09:18 38° S 23:10:44 89° W 23:14:46 10° N
Cosmos 2278 Rocket 2.2 23:09:54 27° SSW 23:13:07 77° ESE 23:18:48 10° NNE
Cosmos 1331 Rocket 4.1 23:15:22 10° NNW 23:20:31 71° ENE 23:23:34 25° SE
Okean 1-7 4.2 23:20:00 23° SE 23:21:34 30° E 23:25:16 10° NNE
Cosmos 1400 Rocket 3.2 23:21:01 10° NNW 23:24:33 44° W 23:25:30 35° SW
Cosmos 1624 Rocket 4.5 23:19:50 10° NNW 23:24:55 48° WSW 23:27:15 29° SSW
Cosmos 1680 Rocket 3.8 23:22:43 21° SW 23:26:08 61° WNW 23:31:18 10° NNE
COSMOS 2406 3.9 23:20:52 10° NNW 23:26:28 52° NE 23:31:27 13° SE
CZ-2C R/B 3.1 23:21:14 10° NNE 23:26:51 82° ESE 23:29:38 30° S
Cosmos 494 Rocket 4.2 23:24:38 24° SW 23:27:50 70° WNW 23:33:06 10° NNE
Cosmos 2056 Rocket 4.1 23:26:52 10° NW 23:31:38 40° WSW 23:33:39 28° SSW
Helios 1B rocket 4.1 23:31:35 14° WSW 23:32:23 15° W 23:34:31 10° NW
Cosmos 1048 Rocket 4.0 23:31:19 31° S 23:33:47 69° ESE 23:39:01 10° NNE
Cosmos 1328 3.5 23:35:16 45° SSE 23:36:11 67° E 23:39:43 10° NNE
Cosmos 1812 4.0 23:35:15 10° NW 23:35:32 12° NW 23:35:32 12° NW
ARIANE 5 R/B 4.0 23:36:34 21° SW 23:38:15 27° W 23:42:03 10° NW
ACS3 Solar Sail 2.0 23:34:26 10° NNE 23:40:03 54° E 23:43:11 26° SSE
USA 238 DEB 3.6 23:36:16 16° SW 23:41:21 81° NW 23:48:14 10° NE
USA 238 3.6 23:36:31 16° SW 23:41:33 81° NW 23:48:27 10° NE
Lacrosse 4 Rocket 4.3 23:39:48 10° N 23:42:30 16° NE 23:45:11 10° ENE
Geosat 4.2 23:42:26 10° NE 23:47:24 58° ESE 23:49:42 30° S
Cosmos 546 4.5 23:46:12 11° WSW 23:49:52 89° SSE 23:53:40 10° ENE
BREEZE-M DEB (TANK) 3.1 23:38:31 10° W 23:50:18 86° SSW 23:54:03 10° ESE
ALOS 2 4.1 23:49:18 19° WSW 23:50:52 24° W 23:54:26 10° NW
SWAS 4.3 23:52:24 38° SSW 23:53:48 72° ESE 23:57:52 10° NE
TIMED 4.4 23:53:01 35° SSW 23:54:44 86° ESE 23:59:01 10° NNE
Cosmos 1441 Rocket 4.0 23:54:17 26° WSW 23:55:16 32° WNW 23:58:15 10° N
